KG2V Weather Reports


time (UTC)temp
F
wind
direction
speed
knots
gust
knots
rain 1hr
in
rain 24hr
in
rain mn
in
humidity
%
barometer
mb
20260906210732 68 114 0.9 0.9 0.00 0.00 0.00 71 1015.5
20260906210227 68 109 0.0 0.0 0.00 0.00 0.00 72 1015.8
20260906205722 68 14 3.5 3.5 0.00 0.00 0.00 72 1015.8
20260906205219 68 93 0.9 0.9 0.00 0.00 0.00 71 1015.6
20260906204718 68 106 0.0 0.9 0.00 0.00 0.00 70 1015.4
20260906204218 68 103 0.0 0.0 0.00 0.00 0.00 68 1015.5
20260906203718 68 101 0.0 0.0 0.00 0.00 0.00 69 1015.6
20260906203213 69 78 1.7 2.6 0.00 0.00 0.00 71 1015.6
20260906202710 69 79 1.7 1.7 0.00 0.00 0.00 69 1015.4
20260906202209 69 323 0.9 1.7 0.00 0.00 0.00 69 1015.4
20260906201704 69 9 3.5 3.5 0.00 0.00 0.00 70 1015.4
20260906201203 69 42 1.7 2.6 0.00 0.00 0.00 70 1015.3
20260906200659 70 85 0.9 0.9 0.00 0.00 0.00 67 1015.5
20260906200155 70 114 0.0 0.9 0.00 0.00 0.00 69 1015.6
20260906195650 69 130 0.0 0.0 0.00 0.00 0.00 70 1015.5
20260906195147 70 87 0.9 0.9 0.00 0.00 0.00 67 1015.8
20260906194643 70 91 0.9 1.7 0.00 0.00 0.00 70 1015.7
20260906194137 69 117 0.0 0.9 0.00 0.00 0.00 71 1015.5
20260906193633 69 51 0.0 0.0 0.00 0.00 0.00 73 1015.6
20260906193128 71 126 0.9 1.7 0.00 0.00 0.00 71 1015.6
20260906192624 70 108 0.9 0.9 0.00 0.00 0.00 70 1015.6
20260906192122 69 71 0.9 1.7 0.00 0.00 0.00 72 1015.5
20260906191618 71 321 3.5 3.5 0.00 0.00 0.00 70 1015.6
20260906191117 70 92 0.0 0.0 0.00 0.00 0.00 69 1015.5
20260906190616 69 99 0.0 0.0 0.00 0.00 0.00 69 1015.3
20260906190112 70 95 0.9 1.7 0.00 0.00 0.00 71 1015.6
20260906185610 70 90 0.9 1.7 0.00 0.00 0.00 73 1015.4
20260906185109 70 24 5.2 7.0 0.00 0.00 0.00 69 1015.6
20260906184604 69 99 1.7 2.6 0.00 0.00 0.00 73 1015.5
20260906184059 69 29 3.5 5.2 0.00 0.00 0.00 72 1015.6
20260906183555 69 29 1.7 1.7 0.00 0.00 0.00 71 1015.5
20260906183052 70 63 0.9 1.7 0.00 0.00 0.00 70 1015.6
20260906182552 72 63 0.0 0.0 0.00 0.00 0.00 70 1015.5
20260906182048 71 13 0.9 3.5 0.00 0.00 0.00 70 1015.5
20260906181543 71 91 2.6 2.6 0.00 0.00 0.00 68 1015.5
20260906181039 69 111 0.0 0.0 0.00 0.00 0.00 73 1015.5
20260906180534 69 103 0.0 0.9 0.00 0.00 0.00 72 1015.2
20260906180033 70 85 0.9 1.7 0.00 0.00 0.00 71 1015.4
20260906175526 70 119 0.0 0.0 0.00 0.00 0.00 70 1015.5
20260906175026 70 74 1.7 1.7 0.00 0.00 0.00 70 1015.7
20260906174524 70 71 0.9 1.7 0.00 0.00 0.00 69 1015.4
20260906174019 70 135 0.0 0.0 0.00 0.00 0.00 69 1015.4
20260906173514 69 23 3.5 5.2 0.00 0.00 0.00 72 1015.6
20260906173010 70 128 0.9 1.7 0.00 0.00 0.00 73 1015.4
20260906172505 69 144 0.9 1.7 0.00 0.00 0.00 74 1015.6
20260906172001 70 8 1.7 5.2 0.00 0.00 0.00 73 1015.5
20260906171455 70 115 0.0 0.9 0.00 0.00 0.00 73 1015.6
20260906170950 70 132 0.0 0.9 0.00 0.00 0.00 71 1015.8
20260906170446 70 53 0.0 0.0 0.00 0.00 0.00 75 1015.6
20260906165943 69 22 2.6 2.6 0.00 0.00 0.00 77 1015.7
20260906165443 68 67 2.6 3.5 0.00 0.00 0.00 78 1015.6
20260906164938 69 101 0.0 0.9 0.00 0.00 0.00 79 1015.7
20260906164436 69 97 0.9 0.9 0.00 0.00 0.00 76 1015.5
20260906163933 68 92 0.9 0.9 0.00 0.00 0.00 78 1015.5
20260906163429 69 50 0.9 1.7 0.00 0.00 0.00 76 1015.7
20260906162926 70 94 0.0 0.0 0.00 0.00 0.00 72 1015.6
20260906162425 69 98 0.0 0.9 0.00 0.00 0.00 74 1015.4
20260906161920 69 113 0.9 1.7 0.00 0.00 0.00 73 1015.6
20260906161420 69 147 0.0 0.0 0.00 0.00 0.00 74 1015.5
20260906160918 68 62 2.6 3.5 0.00 0.00 0.00 77 1015.8
20260906160407 67 97 0.0 0.0 0.00 0.00 0.00 80 1015.4
20260906155905 68 58 0.9 1.7 0.00 0.00 0.00 80 1015.7
20260906155359 68 49 1.7 1.7 0.00 0.00 0.00 77 1015.7
20260906154856 67 120 0.9 0.9 0.00 0.00 0.00 80 1015.5
20260906154355 67 22 1.7 1.7 0.00 0.00 0.00 83 1015.4
20260906153854 66 122 0.0 0.0 0.00 0.00 0.00 84 1015.3
20260906153353 67 80 0.0 0.9 0.00 0.00 0.00 82 1015.3
20260906152848 67 114 0.0 0.0 0.00 0.00 0.00 82 1015.4
20260906152343 67 47 3.5 6.1 0.00 0.00 0.00 81 1015.2
20260906151842 67 87 1.7 1.7 0.00 0.00 0.00 80 1015.3
20260906151338 68 97 0.0 0.9 0.00 0.00 0.00 80 1015.4
20260906150833 68 32 1.7 1.7 0.00 0.00 0.00 81 1015.2
20260906150329 68 94 0.9 0.9 0.00 0.00 0.00 80 1015.4
20260906145828 67 19 0.0 1.7 0.00 0.00 0.00 79 1015.3
20260906145326 67 19 2.6 2.6 0.00 0.00 0.00 82 1015.2
20260906144822 68 31 2.6 3.5 0.00 0.00 0.00 82 1015.1
20260906144317 67 113 0.0 0.0 0.00 0.00 0.00 83 1015.1
20260906143816 67 12 1.7 2.6 0.00 0.00 0.00 84 1015.2
20260906143313 67 76 0.9 0.9 0.00 0.00 0.00 82 1015.2
20260906142808 67 95 0.0 0.9 0.00 0.00 0.00 85 1015.2
20260906142306 67 111 0.0 0.0 0.00 0.00 0.00 83 1015.3
20260906141802 67 0 1.7 1.7 0.00 0.00 0.00 87 1015.1
20260906141257 66 70 0.0 0.0 0.00 0.00 0.00 87 1015.1
20260906140755 66 84 0.0 0.9 0.00 0.00 0.00 88 1015.1
20260906140251 66 120 0.0 0.0 0.00 0.00 0.00 88 1015.0
20260906135748 66 103 0.0 0.9 0.00 0.00 0.00 88 1014.9
20260906135244 66 74 0.9 0.9 0.00 0.00 0.00 88 1014.9
20260906134739 66 91 0.0 0.9 0.00 0.00 0.00 89 1014.7
20260906134234 66 92 0.0 0.0 0.00 0.00 0.00 90 1014.8
20260906133730 65 129 0.9 0.9 0.00 0.00 0.00 91 1014.7
20260906133225 65 61 0.9 1.7 0.00 0.00 0.00 91 1014.5
20260906132720 65 96 0.0 0.0 0.00 0.00 0.00 93 1014.7
20260906132216 65 103 0.0 0.9 0.00 0.00 0.00 94 1014.6
20260906131711 64 25 1.7 1.7 0.00 0.00 0.00 95 1014.8
20260906131206 64 88 0.0 0.0 0.00 0.00 0.00 96 1014.8
20260906130702 64 101 0.0 0.0 0.00 0.00 0.00 97 1014.6
20260906130157 64 68 0.0 0.0 0.00 0.00 0.00 98 1014.5
20260906125655 64 120 0.0 0.0 0.00 0.00 0.00 98 1014.3
20260906125153 64 112 0.0 0.0 0.00 0.00 0.00 99 1014.6
20260906124649 64 111 0.0 0.0 0.00 0.00 0.00 99 1014.4
20260906124144 64 74 0.0 0.9 0.00 0.00 0.00 99 1014.2
20260906123643 64 91 0.9 1.7 0.00 0.00 0.00 99 1014.2
20260906123139 64 98 0.0 0.0 0.00 0.00 0.00 99 1014.2
20260906122637 63 44 0.9 1.7 0.00 0.00 0.00 99 1014.6
20260906122133 64 30 0.0 0.9 0.00 0.00 0.00 99 1014.4
20260906121629 63 97 0.0 0.0 0.00 0.00 0.00 99 1014.3
20260906121126 62 92 0.0 0.9 0.00 0.00 0.00 99 1014.4
20260906120621 62 85 0.0 0.0 0.00 0.00 0.00 99 1014.3
20260906120118 62 70 0.0 0.0 0.00 0.00 0.00 99 1014.3
20260906115612 61 108 0.0 0.0 0.00 0.00 0.00 99 1013.9
20260906115108 60 108 0.0 0.0 0.00 0.00 0.00 99 1014.0
20260906114601 59 108 0.0 0.0 0.00 0.00 0.00 99 1014.0
20260906114057 59 108 0.0 0.0 0.00 0.00 0.00 99 1013.9
20260906113556 58 108 0.0 0.0 0.00 0.00 0.00 99 1013.8
20260906113052 58 108 0.0 0.0 0.00 0.00 0.00 99 1013.8
20260906112551 58 108 0.0 0.0 0.00 0.00 0.00 99 1013.8
20260906112048 58 108 0.0 0.0 0.00 0.00 0.00 99 1013.6
20260906111548 57 108 0.0 0.0 0.00 0.00 0.00 99 1013.7
20260906111043 57 108 0.0 0.0 0.00 0.00 0.00 99 1013.7
20260906110543 57 108 0.0 0.0 0.00 0.00 0.00 99 1013.6
20260906110042 57 108 0.0 0.0 0.00 0.00 0.00 99 1013.6
20260906105537 57 108 0.0 0.0 0.00 0.00 0.00 99 1013.4
20260906105033 57 108 0.0 0.0 0.00 0.00 0.00 99 1013.4
20260906104531 57 108 0.0 0.0 0.00 0.00 0.00 99 1013.3
20260906104026 57 108 0.0 0.0 0.00 0.00 0.00 99 1013.4
20260906103524 57 108 0.0 0.0 0.00 0.00 0.00 99 1013.1
20260906103020 57 108 0.0 0.0 0.00 0.00 0.00 99 1013.2
20260906102515 57 108 0.0 0.0 0.00 0.00 0.00 99 1013.2
20260906102014 57 108 0.0 0.0 0.00 0.00 0.00 99 1013.0
20260906101509 57 108 0.0 0.0 0.00 0.00 0.00 99 1013.1
20260906101005 57 108 0.0 0.0 0.00 0.00 0.00 99 1013.0
20260906100501 57 108 0.0 0.0 0.00 0.00 0.00 99 1013.0
20260906095959 57 108 0.0 0.0 0.00 0.00 0.00 99 1012.9
20260906095455 57 108 0.0 0.0 0.00 0.00 0.00 99 1013.0
20260906094950 57 108 0.0 0.0 0.00 0.00 0.00 99 1012.7
20260906094444 57 108 0.0 0.0 0.00 0.00 0.00 99 1012.7
20260906093940 57 108 0.0 0.0 0.00 0.00 0.00 99 1012.8
20260906093436 57 108 0.0 0.0 0.00 0.00 0.00 99 1012.7
20260906092936 57 108 0.0 0.0 0.00 0.00 0.00 99 1012.6
20260906092435 58 108 0.0 0.0 0.00 0.00 0.00 99 1012.6
20260906091931 57 108 0.0 0.0 0.00 0.00 0.00 99 1012.5
20260906091426 58 108 0.0 0.0 0.00 0.00 0.00 99 1012.4
20260906090923 58 108 0.0 0.0 0.00 0.00 0.00 99 1012.5
20260906090418 58 108 0.0 0.0 0.00 0.00 0.00 99 1012.3
20260906085913 58 108 0.0 0.0 0.00 0.00 0.00 99 1012.3
20260906085412 58 108 0.0 0.0 0.00 0.00 0.00 99 1012.2
20260906084911 58 108 0.0 0.0 0.00 0.00 0.00 99 1012.1
20260906084406 58 108 0.0 0.0 0.00 0.00 0.00 99 1012.1
20260906083905 58 108 0.0 0.0 0.00 0.00 0.00 99 1011.8
20260906083401 58 108 0.0 0.0 0.00 0.00 0.00 99 1011.9
20260906082901 58 108 0.0 0.0 0.00 0.00 0.00 99 1011.9
20260906082401 59 108 0.0 0.0 0.00 0.00 0.00 99 1011.9
20260906081857 59 108 0.0 0.0 0.00 0.00 0.00 99 1011.9
20260906081352 59 108 0.0 0.0 0.00 0.00 0.00 99 1011.8
20260906080848 59 108 0.0 0.0 0.00 0.00 0.00 99 1012.0
20260906080345 59 108 0.0 0.0 0.00 0.00 0.00 99 1012.0
20260906075844 59 108 0.0 0.0 0.00 0.00 0.00 99 1011.9
20260906075339 59 108 0.0 0.0 0.00 0.00 0.00 99 1012.0
20260906074834 59 108 0.0 0.0 0.00 0.00 0.00 99 1011.9
20260906074334 59 108 0.0 0.0 0.00 0.00 0.00 99 1011.8
20260906073833 60 108 0.0 0.0 0.00 0.00 0.00 99 1011.9
20260906073328 60 108 0.0 0.0 0.00 0.00 0.00 99 1011.8
20260906072824 60 108 0.0 0.0 0.00 0.00 0.00 99 1011.7
20260906072320 60 108 0.0 0.0 0.00 0.00 0.00 99 1011.6
20260906071815 60 108 0.0 0.0 0.00 0.00 0.00 99 1011.6
20260906071310 60 108 0.0 0.0 0.00 0.00 0.00 99 1011.6
20260906070806 60 108 0.0 0.0 0.00 0.00 0.00 99 1011.6
20260906070302 60 108 0.0 0.0 0.00 0.00 0.00 99 1011.7
20260906065756 60 108 0.0 0.0 0.00 0.00 0.00 99 1011.6
20260906065252 60 108 0.0 0.0 0.00 0.00 0.00 99 1012.0
20260906064747 60 108 0.0 0.0 0.00 0.00 0.00 99 1011.8
20260906064243 60 108 0.0 0.0 0.00 0.00 0.00 99 1011.7
20260906063738 60 108 0.0 0.0 0.00 0.00 0.00 99 1011.9
20260906063233 60 108 0.0 0.0 0.00 0.00 0.00 99 1011.7
20260906062728 60 108 0.0 0.0 0.00 0.00 0.00 99 1011.7
20260906062227 60 108 0.0 0.0 0.00 0.00 0.00 99 1011.8
20260906061724 61 108 0.0 0.0 0.00 0.00 0.00 99 1011.9
20260906061220 61 108 0.0 0.0 0.00 0.00 0.00 99 1011.9
20260906060715 61 108 0.0 0.0 0.00 0.00 0.00 99 1011.8
20260906060212 61 108 0.0 0.0 0.00 0.00 0.00 99 1011.7
20260906055707 61 108 0.0 0.0 0.00 0.00 0.00 99 1011.9
20260906055202 61 108 0.0 0.0 0.00 0.00 0.00 99 1011.7
20260906054657 61 108 0.0 0.0 0.00 0.00 0.00 99 1011.9
20260906054152 61 108 0.0 0.0 0.00 0.00 0.00 99 1011.8
20260906053649 61 108 0.0 0.0 0.00 0.00 0.00 99 1011.9
20260906053144 61 108 0.0 0.0 0.00 0.00 0.00 99 1011.9
20260906052639 61 108 0.0 0.0 0.00 0.00 0.00 99 1011.8
20260906052136 61 108 0.0 0.0 0.00 0.00 0.00 99 1011.9
20260906051632 61 108 0.0 0.0 0.00 0.00 0.00 99 1011.8
20260906051132 61 108 0.0 0.0 0.00 0.00 0.00 99 1011.8
20260906050627 61 108 0.0 0.0 0.00 0.00 0.00 99 1011.7
20260906050122 61 108 0.0 0.0 0.00 0.00 0.00 99 1011.9
20260906045621 61 108 0.0 0.0 0.00 0.00 0.00 99 1011.9
20260906045116 61 108 0.0 0.0 0.00 0.00 0.00 99 1012.0
20260906044612 61 108 0.0 0.0 0.00 0.00 0.00 99 1011.9
20260906044107 60 108 0.0 0.0 0.00 0.00 0.00 99 1011.8
20260906043604 60 108 0.0 0.0 0.00 0.00 0.00 99 1011.9
20260906043059 60 108 0.0 0.0 0.00 0.00 0.00 99 1011.7
20260906042557 60 108 0.0 0.0 0.00 0.00 0.00 99 1011.6
20260906042052 60 108 0.0 0.0 0.00 0.00 0.00 99 1011.8
20260906041548 60 108 0.0 0.0 0.00 0.00 0.00 99 1011.6
20260906041043 60 108 0.0 0.0 0.00 0.00 0.00 99 1011.6
20260906040538 60 108 0.0 0.0 0.00 0.00 0.00 99 1011.8
20260906040033 60 108 0.0 0.0 0.00 0.00 0.00 99 1011.5
20260906035528 60 108 0.0 0.0 0.00 0.00 0.00 99 1011.9
20260906035025 60 108 0.0 0.0 0.00 0.00 0.00 99 1011.6
20260906034524 60 108 0.0 0.0 0.00 0.00 0.00 98 1011.8
20260906034019 60 108 0.0 0.0 0.00 0.00 0.00 98 1011.6
20260906033514 60 108 0.0 0.0 0.00 0.00 0.00 98 1011.5
20260906033010 60 108 0.0 0.0 0.00 0.00 0.00 98 1011.5
20260906032506 60 108 0.0 0.0 0.00 0.00 0.00 98 1011.4
20260906032001 60 108 0.0 0.0 0.00 0.00 0.00 98 1011.4
20260906031456 60 108 0.0 0.0 0.00 0.00 0.00 98 1011.8
20260906030951 60 108 0.0 0.0 0.00 0.00 0.00 97 1011.7
20260906030445 60 108 0.0 0.0 0.00 0.00 0.00 97 1011.4
20260906025940 61 108 0.0 0.0 0.00 0.00 0.00 97 1011.5
20260906025434 61 108 0.0 0.0 0.00 0.00 0.00 97 1011.4
20260906024933 61 108 0.0 0.0 0.00 0.00 0.00 97 1011.4
20260906024432 61 108 0.0 0.0 0.00 0.00 0.00 96 1011.3
20260906023927 61 108 0.0 0.0 0.00 0.00 0.00 96 1011.4
20260906023424 62 108 0.0 0.0 0.00 0.00 0.00 96 1011.5
20260906022924 62 108 0.0 0.0 0.00 0.00 0.00 96 1011.4
20260906022419 62 108 0.0 0.0 0.00 0.00 0.00 96 1011.2
20260906021914 62 108 0.0 0.0 0.00 0.00 0.00 95 1011.3
20260906021414 63 108 0.0 0.0 0.00 0.00 0.00 95 1011.2
20260906020909 63 108 0.0 0.0 0.00 0.00 0.00 95 1011.4
20260906020409 63 108 0.0 0.0 0.00 0.00 0.00 94 1011.2
20260906015903 64 108 0.0 0.0 0.00 0.00 0.00 94 1011.2
20260906015402 64 108 0.0 0.0 0.00 0.00 0.00 93 1011.2
20260906014856 64 108 0.0 0.0 0.00 0.00 0.00 93 1011.3
20260906014351 64 108 0.0 0.0 0.00 0.00 0.00 92 1011.2
20260906013847 65 108 0.0 0.0 0.00 0.00 0.00 92 1011.1
20260906013343 65 108 0.0 0.0 0.00 0.00 0.00 92 1011.2
20260906012838 65 108 0.0 0.0 0.00 0.00 0.00 92 1011.1
20260906012333 65 108 0.0 0.0 0.00 0.00 0.00 91 1011.3
20260906011832 65 108 0.0 0.0 0.00 0.00 0.00 91 1011.0
20260906011327 65 108 0.0 0.0 0.00 0.00 0.00 91 1011.1
20260906010823 65 108 0.0 0.0 0.00 0.00 0.00 90 1011.1
20260906010319 65 108 0.0 0.0 0.00 0.00 0.00 91 1011.1
20260906005814 65 108 0.0 0.0 0.00 0.00 0.00 90 1011.3
20260906005313 65 108 0.0 0.0 0.00 0.00 0.00 90 1011.0
20260906004812 65 108 0.0 0.0 0.00 0.00 0.00 90 1011.1
20260906004312 65 108 0.0 0.0 0.00 0.00 0.00 90 1011.1
20260906003807 65 108 0.0 0.0 0.00 0.00 0.00 90 1010.9
20260906003303 65 108 0.0 0.0 0.00 0.00 0.00 90 1011.0
20260906002758 65 108 0.0 0.0 0.00 0.00 0.00 90 1010.9
20260906002257 65 108 0.0 0.0 0.00 0.00 0.00 90 1011.1
20260906001753 65 108 0.0 0.0 0.00 0.00 0.00 90 1011.0
20260906001249 65 108 0.0 0.0 0.00 0.00 0.00 90 1010.8
20260906000743 65 108 0.0 0.0 0.00 0.00 0.00 89 1010.8
20260906000238 65 108 0.0 0.0 0.00 0.00 0.00 89 1011.1
20260905235733 65 108 0.0 0.0 0.00 0.00 0.00 88 1011.0
20260905235232 66 108 0.0 0.0 0.00 0.00 0.00 87 1011.1
20260905234728 66 108 0.0 0.0 0.00 0.00 0.00 86 1010.7
20260905234223 66 108 0.0 0.0 0.00 0.00 0.00 86 1011.0
20260905233719 67 108 0.0 0.0 0.00 0.00 0.00 85 1011.0
20260905233218 67 108 0.0 0.0 0.00 0.00 0.00 83 1011.0
20260905232713 68 108 0.0 0.0 0.00 0.00 0.00 83 1010.9
20260905232208 68 107 0.0 0.0 0.00 0.00 0.00 81 1010.9
20260905231704 69 75 0.9 0.9 0.00 0.00 0.00 81 1011.0
20260905231200 69 117 0.0 0.0 0.00 0.00 0.00 80 1011.1
20260905230655 69 136 0.0 0.0 0.00 0.00 0.00 80 1011.0
20260905230153 70 104 0.0 0.0 0.00 0.00 0.00 79 1011.0
20260905225653 70 68 0.9 0.9 0.00 0.00 0.00 78 1011.2
20260905225148 70 110 0.0 0.0 0.00 0.00 0.00 77 1011.0
20260905224648 70 111 0.0 0.0 0.00 0.00 0.00 76 1010.8
20260905224148 70 96 0.0 0.0 0.00 0.00 0.00 76 1010.8
20260905223645 70 74 0.9 1.7 0.00 0.00 0.00 75 1011.0
20260905223141 71 108 0.0 0.9 0.00 0.00 0.00 74 1011.0
20260905222636 71 87 0.0 0.9 0.00 0.00 0.00 75 1010.7
20260905222126 71 20 1.7 2.6 0.00 0.00 0.00 73 1010.7
20260905221621 71 37 0.9 1.7 0.00 0.00 0.00 74 1010.9
20260905221118 71 113 0.0 0.0 0.00 0.00 0.00 74 1010.7
20260905220614 71 90 0.9 0.9 0.00 0.00 0.00 73 1010.6
20260905220110 71 153 0.0 0.0 0.00 0.00 0.00 72 1010.6
20260905215608 71 68 0.9 1.7 0.00 0.00 0.00 74 1010.7
20260905215059 71 30 0.9 0.9 0.00 0.00 0.00 73 1010.8
20260905214555 71 83 0.0 0.0 0.00 0.00 0.00 75 1010.8
20260905214055 72 64 1.7 1.7 0.00 0.00 0.00 73 1010.7
20260905213550 72 74 0.0 0.0 0.00 0.00 0.00 73 1010.5
20260905213046 72 69 0.0 0.0 0.00 0.00 0.00 72 1010.6
20260905212545 72 16 1.7 2.6 0.00 0.00 0.00 70 1010.3
20260905212044 72 50 0.9 1.7 0.00 0.00 0.00 70 1010.3
20260905211540 72 24 3.5 3.5 0.00 0.00 0.00 69 1010.4